Temp
94 92 91 90 90 90 89 89 89 89 87 87 88 89 89 88 87 87 86 86 86 85 85 86 86 86 85 85 85 84 84 83 82 82 82 81 80 80 79 80 79 79 80 80 80 80 80 81 81 81 81 81 80 80 80 80 80 80 81 81 80 79 78
92 92 91 91 90 90 90 89 89 89 88 88 88 88 90 87 87 87 86 86 86 85 85 86 85 85 85 85 84 84 83 83 82 81 81 81 80 81 81 80 80 79 80 80 81 80 81 81 81 81 80 81 80 80 80 80 80 79 80 80 79 79 78
92 92 91 90 90 90 89 90 89 90 89 90 90 90 89 87 87 87 86 86 85 86 86 85 85 85 85 84 84 83 83 83 82 82 81 82 81 81 81 80 80 80 81 80 81 80 81 81 81 81 80 80 80 80 80 80 80 79 79 79 79 79 79
90 91 91 90 90 90 90 89 89 90 91 91 91 90 88 87 88 87 88 87 86 85 84 85 85 85 85 84 83 83 82 82 82 82 81 82 81 81 81 81 81 81 80 81 81 81 81 81 80 80 80 80 79 80 80 80 80 80 79 79 78 79 79
89 91 91 90 90 89 89 89 89 89 91 93 91 89 89 88 88 88 88 88 88 86 86 86 86 85 84 84 84 83 82 82 82 82 82 82 81 81 80 80 81 80 80 81 81 80 80 80 80 80 80 80 80 80 80 80 80 80 79 79 78 78 78
88 88 89 90 90 89 89 90 91 93 92 92 90 89 90 91 92 92 90 87 86 87 86 85 85 84 83 84 84 83 82 82 82 82 81 81 81 81 81 80 80 80 80 80 81 81 80 80 80 80 80 81 82 80 80 80 81 80 79 79 78 78 78
88 88 89 90 90 90 90 91 93 93 93 92 92 90 92 93 92 92 91 88 87 85 85 85 85 85 84 84 83 82 81 82 82 81 82 82 82 81 81 80 80 81 81 81 80 80 80 79 79 79 79 80 79 79 79 78 79 80 78 78 78 78 78
89 89 90 90 92 93 92 91 91 92 92 92 91 92 93 93 92 92 91 91 90 91 89 88 86 84 84 83 83 82 82 82 83 83 82 82 82 81 81 81 81 81 80 80 80 80 80 79 80 80 79 79 79 78 79 78 78 80 79 78 77 77 78
90 90 90 92 93 94 93 91 90 90 89 89 88 89 90 90 91 90 90 90 89 88 88 90 88 86 84 83 83 82 83 82 82 82 82 81 82 82 83 84 83 83 80 80 81 81 80 80 80 79 79 79 78 78 78 78 78 79 79 78 77 77 74
88 88 90 92 93 93 91 91 90 88 87 86 86 87 88 88 88 89 89 90 91 89 88 88 88 88 85 83 83 83 82 82 82 82 83 82 83 82 84 84 84 84 82 81 82 80 80 80 80 79 79 78 78 78 78 78 79 78 78 78 77 76 73
88 88 88 90 90 90 89 89 87 84 84 84 85 86 87 86 86 88 87 90 91 90 89 88 87 86 85 84 84 83 82 82 83 82 82 82 85 83 85 87 85 83 82 81 80 80 80 80 80 79 79 79 78 78 78 79 79 78 78 79 78 76 75
87 87 86 87 87 87 87 86 85 84 84 84 85 86 85 85 86 87 87 87 90 90 88 87 88 87 86 86 84 82 82 82 82 82 82 82 83 83 83 82 82 83 85 84 83 82 82 81 81 79 79 79 79 79 79 79 79 78 78 78 78 77 76
87 86 85 86 86 86 86 84 83 84 84 85 86 86 86 86 86 87 85 86 88 88 88 86 85 84 84 85 85 83 83 83 83 83 83 83 82 83 83 84 85 85 82 83 83 83 82 82 81 81 79 79 80 80 79 79 79 78 78 77 77 76 75
84 86 86 86 85 84 84 83 84 84 84 85 86 86 87 87 87 86 85 86 87 88 88 87 84 84 83 83 83 82 83 83 83 83 83 83 82 82 82 82 81 80 81 82 82 83 82 82 81 82 82 81 80 80 80 79 79 78 77 77 76 76 76
85 85 85 85 83 84 83 83 83 84 85 85 86 86 86 87 86 86 86 87 86 88 87 86 84 83 83 83 82 82 83 83 83 83 83 82 82 81 81 80 79 80 81 81 81 82 82 82 82 81 80 81 80 80 80 80 79 79 78 76 75 76 75
85 85 85 84 83 84 84 84 84 84 84 85 86 85 86 86 85 85 86 86 88 86 87 85 83 82 82 82 82 83 83 83 82 82 82 82 81 81 81 80 80 81 81 81 82 81 81 81 81 82 81 80 79 78 80 79 79 73 66 67 73 74 74
85 85 85 85 84 84 84 84 85 85 84 85 85 85 85 85 86 86 88 89 89 86 86 86 83 82 82 82 83 83 83 83 82 82 81 81 81 80 80 79 80 81 80 80 80 80 80 80 80 81 82 81 80 80 79 79 78 69 64 63 63 70 74
85 85 85 85 84 84 84 85 85 85 85 86 86 86 86 85 86 86 87 88 87 88 88 85 84 83 82 83 83 83 83 82 82 81 81 81 80 80 80 80 80 80 80 80 80 80 81 80 80 80 80 80 81 80 79 80 73 65 63 63 63 64 70
85 85 85 84 84 84 85 86 86 86 87 87 87 87 87 87 87 85 86 86 87 87 86 86 85 83 83 83 83 83 83 82 82 81 81 81 81 80 80 79 79 79 79 80 81 81 79 79 80 80 80 80 79 79 80 81 69 63 62 62 62 62 64
85 86 86 86 86 86 86 87 88 88 88 87 88 91 90 89 87 87 88 88 87 86 85 84 84 84 83 83 83 83 83 82 82 81 81 81 80 80 80 79 79 80 81 81 81 80 79 80 79 80 80 80 79 79 80 80 69 63 62 61 60 60 62
84 85 85 85 85 86 86 87 87 87 87 88 90 90 89 88 88 88 88 88 87 86 84 84 84 83 83 83 83 83 83 83 82 81 81 81 80 80 79 79 80 80 81 81 80 80 79 79 79 80 80 81 81 80 80 81 67 63 61 60 57 58 61
85 86 85 86 85 86 86 87 86 87 87 89 90 90 90 89 90 90 88 89 87 86 85 84 83 83 84 83 84 83 83 83 82 82 82 81 81 80 79 79 80 79 80 80 81 81 81 81 81 80 80 80 81 80 79 81 63 61 60 58 57 57 67
89 88 88 88 89 88 87 88 88 88 87 88 89 89 89 90 91 89 89 88 87 86 86 85 83 83 83 83 84 84 84 84 83 82 82 81 81 80 80 79 79 80 81 80 79 80 80 81 81 80 77 74 74 75 77 81 67 57 57 56 56 60 72
90 89 88 89 88 89 87 88 89 88 89 89 88 89 90 90 90 88 86 86 87 87 86 85 84 84 84 84 84 84 84 84 83 82 81 81 80 80 80 81 81 81 81 79 78 79 81 79 78 79 77 75 75 75 73 75 69 54 55 53 55 61 73
90 91 89 89 89 88 87 87 88 89 89 88 87 89 89 89 89 88 85 85 87 87 86 84 84 84 84 84 85 85 85 84 83 82 82 81 81 82 80 80 79 80 80 78 77 75 74 75 75 73 73 77 78 74 74 76 70 54 55 53 55 61 72
86 87 88 88 90 89 87 87 87 87 88 87 87 89 88 89 88 86 85 86 87 86 84 84 85 85 86 86 85 85 84 84 82 82 82 82 82 82 79 77 79 79 80 79 79 77 77 77 75 73 73 75 75 74 77 76 74 73 53 53 53 56 69
87 88 88 90 89 86 87 87 87 87 87 87 87 89 89 89 87 85 84 84 84 84 85 86 86 86 85 85 85 84 84 84 83 82 82 81 80 80 79 78 79 79 78 78 79 78 76 75 75 73 72 73 74 75 74 73 78 78 59 54 53 55 57
88 88 91 90 87 87 87 89 87 88 90 88 88 90 89 87 84 84 84 83 83 84 87 86 86 86 85 83 83 83 83 83 83 83 82 80 78 78 78 78 79 79 79 79 77 74 74 74 73 73 72 73 75 73 74 73 70 78 65 55 53 52 54
85 86 88 87 86 87 88 87 86 88 90 92 94 90 87 86 83 83 83 82 83 86 87 86 86 84 83 82 82 81 81 81 81 82 82 80 79 79 78 78 77 78 77 77 75 74 74 73 74 74 74 74 75 75 74 74 69 64 73 63 56 54 53
86 87 87 91 91 88 88 86 87 88 90 93 90 87 86 84 82 82 81 82 85 86 86 84 83 82 81 80 80 81 81 82 82 81 80 79 79 78 78 77 77 77 76 76 75 74 73 74 73 72 72 73 72 73 73 69 67 68 63 67 60 54 51
86 86 87 88 92 88 88 88 86 87 87 87 85 85 84 85 82 81 80 83 85 84 83 82 80 80 79 80 81 80 81 81 81 80 80 80 79 77 77 76 77 76 75 75 75 74 73 74 72 70 70 71 70 70 71 72 72 74 66 62 61 55 51
85 86 87 87 85 85 87 88 87 86 84 83 84 83 83 83 83 80 81 84 84 84 83 81 79 79 79 80 80 80 80 79 79 78 78 78 79 78 78 77 77 76 75 75 75 74 73 73 71 70 71 72 70 69 70 70 68 69 74 70 68 66 60
83 84 84 84 83 83 84 85 85 84 84 83 83 84 86 84 84 83 83 83 83 84 82 80 79 78 79 79 79 78 77 76 79 79 78 77 79 78 77 78 77 76 74 75 75 75 74 73 73 72 72 72 71 69 70 70 71 71 72 70 70 72 69
82 82 83 83 82 83 83 83 83 84 83 83 83 83 84 85 85 85 85 86 87 86 81 79 79 79 79 78 78 78 76 77 73 74 78 79 78 79 79 77 73 70 72 75 75 75 74 74 74 73 72 71 71 71 72 74 73 69 65 65 64 63 66
82 82 81 80 80 80 81 81 81 81 81 80 81 81 81 81 84 87 84 84 85 82 80 79 78 77 77 78 77 75 74 76 76 77 77 76 75 76 76 74 74 72 70 69 70 71 71 72 74 75 76 76 73 69 69 68 66 63 52 50 47 50 55
82 82 80 81 81 80 79 78 79 79 79 78 79 79 79 79 80 82 86 84 82 81 79 76 76 75 78 78 77 78 79 77 79 78 76 77 77 75 70 53 46 54 68 70 53 48 45 50 65 65 71 73 72 65 65 62 60 48 42 41 41 41 41
82 81 81 81 81 79 79 78 78 78 77 78 78 79 79 78 80 80 82 81 81 80 77 76 75 75 78 77 79 78 76 77 78 76 74 73 75 73 74 72 61 45 44 50 51 46 42 42 42 44 48 58 69 60 50 50 45 41 41 41 40 40 41
82 81 81 82 81 79 78 78 78 78 77 78 78 78 78 79 80 79 82 80 80 80 78 77 75 75 77 78 77 72 72 76 75 74 74 74 74 72 72 70 63 58 46 43 45 45 42 41 41 41 43 44 49 56 63 52 46 41 42 41 41 40 41
MSLP
1010.96 1011.68 1012.04 1012.20 1012.60 1012.96 1013.32 1013.64 1013.76 1014.20 1014.56 1014.84 1015.04 1015.20 1015.44 1015.64 1015.92 1016.24 1016.52 1016.64 1016.76 1016.96 1016.88 1016.80 1016.88 1016.88 1016.96 1017.00 1017.04 1017.08 1017.12 1017.28 1017.40 1017.56 1017.64 1017.72 1017.80 1017.84 1017.88 1017.72 1017.68 1017.56 1017.36 1017.32 1017.12 1017.04 1016.80 1016.60 1016.56 1016.44 1016.32 1016.28 1016.24 1016.16 1016.04 1015.84 1015.76 1015.56 1015.32 1015.16 1015.08 1015.08 1015.04
1010.76 1011.20 1011.64 1011.88 1012.32 1012.60 1012.84 1013.16 1013.44 1013.72 1014.20 1014.44 1014.76 1015.00 1015.12 1015.56 1015.76 1016.12 1016.32 1016.40 1016.52 1016.68 1016.76 1016.72 1016.80 1016.80 1016.80 1016.88 1016.92 1017.00 1017.16 1017.20 1017.28 1017.44 1017.48 1017.64 1017.64 1017.60 1017.56 1017.60 1017.56 1017.44 1017.24 1017.08 1016.96 1016.80 1016.68 1016.56 1016.48 1016.44 1016.40 1016.24 1016.20 1016.04 1015.92 1015.76 1015.64 1015.52 1015.36 1015.20 1015.08 1014.96 1014.88
1010.56 1010.76 1011.20 1011.60 1011.96 1012.28 1012.68 1012.92 1013.24 1013.36 1013.72 1014.04 1014.36 1014.72 1014.96 1015.36 1015.48 1015.80 1016.08 1016.24 1016.48 1016.48 1016.52 1016.60 1016.64 1016.64 1016.68 1016.76 1016.92 1016.92 1017.00 1017.12 1017.24 1017.32 1017.48 1017.52 1017.56 1017.52 1017.40 1017.36 1017.32 1017.24 1017.08 1016.92 1016.80 1016.72 1016.48 1016.52 1016.36 1016.32 1016.28 1016.28 1016.08 1015.96 1015.80 1015.64 1015.52 1015.40 1015.28 1015.08 1014.92 1014.80 1014.80
1010.36 1010.52 1010.76 1011.12 1011.48 1011.80 1012.16 1012.52 1013.00 1013.08 1013.28 1013.56 1013.92 1014.28 1014.68 1015.08 1015.12 1015.44 1015.60 1015.88 1016.28 1016.40 1016.64 1016.56 1016.48 1016.56 1016.56 1016.72 1016.80 1016.84 1016.96 1017.04 1017.12 1017.20 1017.28 1017.28 1017.40 1017.32 1017.28 1017.20 1017.08 1016.92 1016.92 1016.84 1016.64 1016.56 1016.44 1016.36 1016.32 1016.20 1016.16 1016.08 1016.00 1015.76 1015.64 1015.52 1015.36 1015.24 1015.12 1014.96 1014.92 1014.72 1014.56
1010.40 1010.48 1010.72 1011.16 1011.48 1011.84 1012.16 1012.48 1012.80 1012.96 1013.08 1013.12 1013.52 1013.88 1014.28 1014.64 1014.88 1015.16 1015.36 1015.52 1015.76 1016.16 1016.20 1016.24 1016.20 1016.28 1016.36 1016.44 1016.56 1016.64 1016.76 1016.88 1016.96 1017.00 1017.08 1017.08 1017.12 1017.12 1017.20 1017.16 1017.00 1016.92 1016.80 1016.68 1016.48 1016.44 1016.40 1016.32 1016.20 1016.08 1016.00 1015.84 1015.76 1015.64 1015.52 1015.32 1015.20 1015.04 1014.96 1014.80 1014.72 1014.60 1014.48
1010.40 1010.56 1010.64 1010.84 1011.16 1011.52 1011.80 1012.00 1012.24 1012.52 1012.84 1013.08 1013.44 1013.88 1014.12 1014.36 1014.52 1014.84 1015.08 1015.48 1015.72 1015.76 1015.96 1016.08 1016.24 1016.28 1016.44 1016.28 1016.40 1016.52 1016.60 1016.64 1016.72 1016.84 1016.92 1016.96 1016.96 1017.00 1017.00 1016.96 1016.88 1016.80 1016.68 1016.56 1016.36 1016.28 1016.20 1016.20 1016.16 1016.04 1015.92 1015.64 1015.52 1015.56 1015.40 1015.24 1014.96 1014.84 1014.84 1014.72 1014.52 1014.48 1014.40
1009.96 1010.08 1010.20 1010.36 1010.68 1011.12 1011.44 1011.60 1011.84 1012.20 1012.40 1012.64 1013.00 1013.48 1013.72 1013.92 1014.28 1014.36 1014.60 1015.36 1015.52 1015.96 1016.04 1016.12 1016.08 1016.12 1016.24 1016.20 1016.36 1016.48 1016.60 1016.56 1016.56 1016.68 1016.64 1016.72 1016.72 1016.80 1016.76 1016.72 1016.64 1016.56 1016.44 1016.32 1016.36 1016.20 1016.20 1016.16 1016.04 1015.96 1015.84 1015.72 1015.60 1015.48 1015.24 1015.32 1015.04 1014.68 1014.64 1014.56 1014.56 1014.44 1014.32
1009.36 1009.76 1009.68 1009.88 1010.16 1010.36 1010.88 1011.28 1011.64 1011.96 1012.20 1012.40 1012.96 1013.32 1013.44 1013.56 1013.92 1014.24 1014.60 1014.88 1015.16 1015.20 1015.48 1015.64 1015.88 1016.08 1016.16 1016.16 1016.20 1016.32 1016.36 1016.36 1016.32 1016.32 1016.40 1016.56 1016.52 1016.60 1016.52 1016.44 1016.40 1016.28 1016.32 1016.32 1016.08 1016.04 1016.08 1016.04 1015.84 1015.68 1015.64 1015.64 1015.52 1015.40 1015.16 1015.00 1014.92 1014.68 1014.52 1014.52 1014.48 1014.48 1014.24
1008.84 1009.00 1009.20 1009.36 1009.60 1009.92 1010.36 1010.88 1011.28 1011.72 1012.16 1012.52 1012.92 1013.16 1013.28 1013.64 1013.88 1014.16 1014.48 1014.72 1014.84 1015.16 1015.28 1015.16 1015.36 1015.64 1015.88 1016.04 1016.12 1016.20 1016.16 1016.20 1016.24 1016.24 1016.32 1016.44 1016.36 1016.28 1016.12 1015.88 1015.88 1015.88 1016.16 1016.20 1016.00 1015.84 1015.84 1015.76 1015.68 1015.64 1015.52 1015.48 1015.36 1015.20 1015.12 1014.88 1014.72 1014.56 1014.48 1014.48 1014.48 1014.44 1014.60
1008.96 1009.24 1009.04 1008.92 1009.12 1009.48 1010.00 1010.56 1011.04 1011.72 1012.40 1012.76 1013.00 1013.20 1013.40 1013.64 1013.84 1014.00 1014.28 1014.48 1014.60 1014.96 1015.08 1015.16 1015.24 1015.40 1015.64 1015.92 1016.00 1015.96 1016.08 1016.16 1016.12 1016.16 1016.16 1016.16 1016.04 1016.08 1015.92 1015.68 1015.56 1015.36 1015.60 1015.68 1015.64 1015.72 1015.60 1015.48 1015.44 1015.36 1015.32 1015.24 1015.16 1015.04 1014.92 1014.76 1014.56 1014.40 1014.36 1014.28 1014.24 1014.28 1014.36
1008.68 1008.96 1009.16 1009.20 1009.44 1009.68 1010.04 1010.52 1011.24 1011.84 1012.16 1012.56 1012.84 1013.08 1013.28 1013.60 1013.84 1014.04 1014.32 1014.32 1014.40 1014.44 1014.56 1014.92 1015.08 1015.32 1015.48 1015.60 1015.80 1015.84 1015.96 1016.04 1015.96 1016.00 1016.04 1016.04 1015.80 1015.72 1015.52 1015.32 1015.40 1015.52 1015.60 1015.56 1015.64 1015.56 1015.36 1015.20 1015.04 1015.08 1015.00 1014.96 1014.92 1014.84 1014.72 1014.52 1014.40 1014.32 1014.24 1014.12 1014.04 1014.16 1014.04
1008.76 1009.04 1009.24 1009.28 1009.48 1009.76 1010.12 1010.36 1010.84 1011.28 1011.84 1012.24 1012.52 1012.84 1013.16 1013.40 1013.64 1013.84 1014.12 1014.28 1014.12 1014.32 1014.52 1014.72 1014.88 1015.08 1015.28 1015.36 1015.52 1015.72 1015.84 1015.84 1015.80 1015.84 1015.80 1015.76 1015.72 1015.68 1015.56 1015.56 1015.48 1015.28 1015.00 1014.96 1015.12 1015.00 1014.84 1014.80 1014.76 1014.80 1014.68 1014.52 1014.48 1014.44 1014.32 1014.16 1014.08 1014.12 1014.08 1014.04 1013.96 1013.88 1013.80
1008.88 1009.04 1009.24 1009.40 1009.56 1009.68 1009.92 1010.44 1010.76 1010.96 1011.44 1011.80 1012.12 1012.48 1012.76 1013.08 1013.36 1013.60 1014.00 1014.20 1014.04 1014.08 1014.36 1014.64 1014.92 1015.12 1015.28 1015.28 1015.32 1015.48 1015.60 1015.56 1015.60 1015.56 1015.52 1015.52 1015.48 1015.40 1015.36 1015.24 1015.16 1015.16 1015.24 1015.04 1014.92 1014.84 1014.72 1014.52 1014.44 1014.36 1014.40 1014.24 1014.08 1014.04 1013.92 1013.84 1013.80 1013.84 1013.88 1013.88 1013.84 1013.80 1013.72
1008.88 1009.00 1009.12 1009.32 1009.64 1009.88 1010.16 1010.36 1010.56 1010.88 1011.24 1011.56 1011.88 1012.12 1012.44 1012.64 1012.92 1013.32 1013.76 1014.00 1013.92 1014.00 1014.20 1014.40 1014.76 1015.04 1015.20 1015.24 1015.32 1015.40 1015.40 1015.32 1015.24 1015.28 1015.32 1015.28 1015.28 1015.28 1015.20 1015.12 1015.24 1015.32 1015.16 1014.88 1014.76 1014.56 1014.48 1014.36 1014.16 1013.92 1013.80 1013.80 1013.76 1013.56 1013.52 1013.60 1013.64 1013.64 1013.60 1013.68 1013.72 1013.64 1013.52
1009.04 1009.08 1009.12 1009.36 1009.56 1009.64 1009.88 1010.20 1010.36 1010.64 1010.96 1011.28 1011.56 1012.00 1012.24 1012.48 1012.76 1013.08 1013.40 1013.40 1013.64 1013.72 1014.00 1014.20 1014.60 1014.92 1015.00 1015.08 1015.24 1015.24 1015.12 1015.08 1015.04 1015.00 1015.04 1015.08 1015.12 1015.12 1015.04 1015.08 1015.24 1015.12 1014.80 1014.60 1014.44 1014.24 1014.20 1014.00 1013.88 1013.76 1013.68 1013.48 1013.40 1013.28 1013.24 1013.32 1013.36 1013.32 1013.40 1013.56 1013.56 1013.44 1013.36
1008.76 1008.88 1009.00 1009.12 1009.24 1009.36 1009.48 1009.64 1009.96 1010.24 1010.64 1011.04 1011.40 1011.76 1012.04 1012.40 1012.72 1013.00 1013.28 1013.40 1013.44 1013.68 1013.72 1014.00 1014.48 1014.76 1014.80 1014.88 1014.88 1014.80 1014.76 1014.80 1014.88 1014.92 1014.92 1014.96 1015.04 1014.96 1014.84 1014.92 1014.92 1014.68 1014.52 1014.40 1014.20 1014.04 1013.88 1013.80 1013.72 1013.56 1013.36 1013.32 1013.32 1013.24 1013.04 1013.08 1013.04 1013.16 1013.52 1013.68 1013.60 1013.44 1013.24
1008.28 1008.36 1008.36 1008.56 1008.80 1008.92 1009.08 1009.32 1009.52 1009.88 1010.32 1010.76 1011.08 1011.44 1011.76 1012.12 1012.36 1012.68 1012.76 1012.88 1013.04 1013.40 1013.56 1013.76 1014.24 1014.44 1014.48 1014.60 1014.48 1014.44 1014.44 1014.64 1014.72 1014.68 1014.76 1014.76 1014.76 1014.72 1014.68 1014.80 1014.56 1014.36 1014.28 1014.20 1014.00 1013.96 1013.88 1013.72 1013.60 1013.36 1013.12 1013.04 1013.00 1012.92 1012.84 1012.80 1012.76 1013.04 1013.36 1013.60 1013.76 1013.52 1013.12
1008.00 1008.00 1007.96 1008.12 1008.32 1008.48 1008.80 1009.00 1009.28 1009.52 1009.92 1010.32 1010.64 1011.04 1011.48 1011.88 1012.16 1012.48 1012.60 1012.60 1012.80 1012.92 1013.08 1013.56 1013.84 1014.04 1014.12 1014.12 1014.16 1014.20 1014.28 1014.40 1014.40 1014.48 1014.52 1014.48 1014.52 1014.44 1014.40 1014.40 1014.24 1014.16 1014.08 1013.88 1013.76 1013.68 1013.48 1013.44 1013.36 1013.16 1012.96 1012.88 1012.76 1012.72 1012.64 1012.52 1012.52 1012.88 1013.16 1013.40 1013.52 1013.44 1013.16
1007.64 1007.56 1007.60 1007.76 1008.04 1008.24 1008.28 1008.36 1008.56 1008.88 1009.28 1009.76 1010.20 1010.68 1011.00 1011.36 1011.84 1012.16 1012.16 1012.40 1012.48 1012.68 1012.96 1013.24 1013.40 1013.60 1013.80 1013.76 1013.84 1013.92 1014.00 1014.04 1014.16 1014.24 1014.28 1014.20 1014.12 1014.12 1013.96 1014.08 1014.00 1013.92 1013.80 1013.60 1013.36 1013.36 1013.48 1013.36 1013.12 1012.92 1012.68 1012.68 1012.68 1012.60 1012.40 1012.20 1012.32 1012.68 1012.96 1013.12 1013.20 1013.12 1013.12
1007.24 1007.16 1007.20 1007.28 1007.44 1007.68 1007.76 1007.72 1007.92 1008.32 1008.76 1009.28 1009.64 1010.00 1010.40 1010.68 1011.20 1011.48 1011.52 1011.80 1012.12 1012.60 1012.84 1012.96 1013.12 1013.24 1013.40 1013.48 1013.56 1013.60 1013.64 1013.72 1013.84 1013.92 1013.96 1013.84 1013.88 1013.84 1013.80 1013.96 1013.88 1013.64 1013.40 1013.16 1013.04 1013.12 1013.16 1013.00 1012.84 1012.56 1012.48 1012.36 1012.28 1012.28 1012.16 1012.04 1012.40 1012.60 1012.68 1012.80 1012.80 1012.76 1012.88
1007.20 1007.08 1007.16 1007.20 1007.40 1007.36 1007.52 1007.56 1007.76 1008.20 1008.72 1009.04 1009.32 1009.76 1010.20 1010.64 1010.84 1011.04 1011.32 1011.56 1012.00 1012.24 1012.56 1012.68 1012.84 1013.00 1013.08 1013.20 1013.20 1013.28 1013.32 1013.44 1013.48 1013.52 1013.60 1013.64 1013.60 1013.60 1013.60 1013.68 1013.44 1013.32 1013.20 1013.08 1013.04 1012.92 1012.84 1012.72 1012.60 1012.36 1012.16 1012.04 1011.96 1011.84 1011.76 1011.60 1011.84 1012.12 1012.28 1012.40 1012.48 1012.48 1012.64
1006.72 1006.72 1006.96 1006.76 1007.04 1007.20 1007.36 1007.52 1007.76 1008.12 1008.52 1008.56 1009.12 1009.60 1009.84 1010.32 1010.36 1010.76 1011.08 1011.20 1011.68 1011.92 1012.08 1012.32 1012.56 1012.68 1012.76 1012.88 1012.92 1013.00 1013.00 1013.08 1013.16 1013.20 1013.24 1013.28 1013.32 1013.36 1013.44 1013.32 1013.16 1013.12 1012.92 1012.88 1012.72 1012.52 1012.44 1012.24 1012.00 1011.96 1011.88 1011.80 1011.72 1011.68 1011.72 1011.40 1011.56 1011.68 1011.88 1012.00 1012.12 1012.28 1012.16
1005.84 1006.12 1006.16 1006.28 1006.40 1006.76 1006.84 1006.96 1007.44 1007.68 1008.12 1008.68 1009.04 1009.44 1009.76 1009.84 1010.04 1010.44 1010.76 1011.16 1011.36 1011.56 1011.80 1012.00 1012.32 1012.40 1012.44 1012.56 1012.52 1012.60 1012.60 1012.64 1012.80 1012.92 1012.88 1012.92 1013.00 1013.08 1013.08 1013.12 1013.00 1012.80 1012.52 1012.72 1012.64 1012.48 1012.32 1012.08 1012.00 1011.88 1012.20 1012.80 1012.76 1012.40 1011.80 1011.24 1011.16 1011.28 1011.48 1011.68 1011.76 1012.08 1011.52
1005.40 1005.52 1005.76 1005.92 1006.04 1006.40 1006.80 1007.00 1007.20 1007.48 1007.96 1008.56 1008.88 1009.04 1009.24 1009.44 1009.76 1010.24 1010.76 1011.04 1011.08 1011.36 1011.64 1011.80 1011.96 1011.96 1012.08 1012.20 1012.16 1012.16 1012.16 1012.24 1012.44 1012.64 1012.60 1012.64 1012.76 1012.72 1012.72 1012.60 1012.56 1012.56 1012.44 1012.76 1012.80 1012.60 1012.24 1012.40 1012.36 1012.20 1012.28 1012.28 1012.28 1012.36 1012.56 1012.08 1011.12 1011.04 1011.12 1011.32 1011.48 1011.48 1011.20
1005.44 1005.36 1005.68 1005.76 1006.08 1006.56 1006.80 1007.08 1007.20 1007.52 1007.92 1008.40 1009.00 1008.92 1008.92 1009.16 1009.48 1010.04 1010.60 1010.76 1010.80 1010.88 1011.28 1011.48 1011.52 1011.56 1011.68 1011.76 1011.68 1011.72 1011.76 1011.92 1012.08 1012.24 1012.32 1012.40 1012.28 1012.24 1012.44 1012.56 1012.76 1012.56 1012.52 1012.68 1012.80 1013.08 1013.04 1012.84 1012.84 1013.00 1012.92 1012.48 1012.08 1011.80 1011.84 1011.64 1011.60 1011.04 1010.80 1010.92 1011.08 1011.24 1011.00
1005.92 1005.88 1005.92 1005.80 1005.88 1006.16 1006.56 1006.84 1007.36 1007.80 1008.12 1008.64 1008.76 1008.48 1008.64 1008.84 1009.24 1009.76 1010.16 1010.32 1010.36 1010.64 1010.88 1010.96 1010.96 1010.92 1010.96 1011.08 1011.24 1011.36 1011.56 1011.68 1011.92 1012.00 1012.08 1012.04 1011.92 1011.84 1012.20 1012.52 1012.48 1012.44 1012.40 1012.36 1012.28 1012.48 1012.48 1012.56 1012.52 1012.60 1012.52 1012.36 1012.36 1012.40 1011.76 1011.68 1011.44 1010.40 1010.40 1010.60 1010.76 1010.96 1010.80
1005.72 1005.68 1005.96 1005.88 1006.08 1006.20 1006.76 1007.08 1007.36 1007.80 1008.04 1008.12 1008.12 1008.12 1008.28 1008.56 1009.12 1009.60 1009.84 1010.04 1010.28 1010.40 1010.28 1010.28 1010.40 1010.52 1010.64 1010.84 1011.08 1011.28 1011.44 1011.40 1011.52 1011.72 1011.68 1011.88 1012.04 1011.88 1012.00 1012.16 1012.28 1012.20 1012.36 1012.40 1012.16 1012.24 1012.36 1012.36 1012.28 1012.32 1012.24 1012.08 1011.96 1012.00 1011.84 1011.80 1010.80 1010.12 1010.16 1010.28 1010.52 1010.76 1011.04
1005.80 1005.80 1005.56 1005.64 1006.12 1006.44 1006.80 1007.04 1007.36 1007.48 1007.60 1007.68 1007.72 1007.76 1008.12 1008.52 1009.12 1009.40 1009.68 1010.00 1010.16 1009.92 1009.68 1009.80 1010.00 1010.20 1010.48 1010.92 1011.16 1011.24 1011.28 1011.28 1011.24 1011.28 1011.44 1011.64 1012.00 1011.96 1011.88 1011.80 1011.76 1011.80 1011.92 1012.00 1012.20 1012.32 1012.28 1012.24 1012.24 1012.12 1012.04 1011.80 1011.48 1011.60 1011.36 1011.08 1011.08 1010.40 1010.04 1010.20 1010.40 1010.64 1010.84
1006.20 1006.28 1006.20 1006.40 1006.68 1006.56 1006.76 1007.32 1007.56 1007.56 1007.44 1007.24 1007.32 1007.68 1008.08 1008.52 1009.16 1009.32 1009.48 1009.88 1009.68 1009.24 1009.32 1009.52 1009.80 1010.20 1010.56 1010.84 1011.00 1011.16 1011.20 1011.20 1011.20 1011.28 1011.24 1011.56 1011.68 1011.56 1011.72 1011.72 1011.76 1011.72 1011.76 1011.88 1012.08 1012.16 1012.16 1012.04 1011.92 1011.84 1011.72 1011.60 1011.28 1011.08 1010.96 1010.92 1011.56 1011.16 1010.20 1009.96 1010.16 1010.32 1010.56
1006.04 1006.16 1006.28 1006.04 1006.12 1006.60 1006.72 1007.24 1007.36 1007.40 1007.20 1006.96 1007.44 1007.92 1008.16 1008.56 1009.12 1009.32 1009.56 1009.56 1009.04 1009.00 1009.12 1009.44 1009.80 1010.12 1010.48 1010.76 1010.92 1010.92 1010.96 1011.00 1011.04 1011.12 1011.28 1011.40 1011.40 1011.44 1011.56 1011.64 1011.64 1011.68 1011.72 1011.84 1011.92 1012.04 1012.04 1011.88 1011.76 1011.80 1011.88 1011.68 1011.44 1011.12 1011.00 1011.48 1011.80 1010.40 1010.12 1010.08 1010.16 1010.24 1010.28
1006.16 1006.32 1006.36 1006.36 1006.24 1006.48 1006.80 1007.08 1007.48 1007.48 1007.60 1007.64 1007.92 1007.96 1008.16 1008.28 1008.80 1009.12 1009.36 1008.96 1008.72 1009.04 1009.24 1009.52 1009.80 1010.16 1010.56 1010.72 1010.72 1010.80 1010.88 1011.00 1011.08 1011.20 1011.28 1011.28 1011.24 1011.40 1011.48 1011.52 1011.56 1011.72 1011.68 1011.72 1011.68 1011.72 1011.84 1011.68 1011.64 1011.92 1011.88 1011.52 1011.44 1011.24 1010.92 1010.76 1010.60 1010.20 1010.08 1010.04 1010.08 1010.12 1010.08
1006.24 1006.20 1006.32 1006.48 1006.80 1006.96 1006.92 1006.92 1007.16 1007.56 1007.96 1008.04 1007.96 1008.12 1008.20 1008.32 1008.48 1009.00 1008.84 1008.44 1008.60 1008.76 1009.00 1009.32 1009.76 1010.16 1010.52 1010.60 1010.60 1010.72 1010.92 1011.20 1011.24 1011.36 1011.48 1011.44 1011.24 1011.20 1011.20 1011.28 1011.40 1011.48 1011.56 1011.64 1011.60 1011.52 1011.52 1011.52 1011.64 1011.72 1011.48 1011.28 1011.32 1011.20 1010.96 1010.88 1011.08 1010.88 1010.12 1010.12 1010.04 1009.84 1009.80
1006.52 1006.56 1006.72 1006.88 1006.96 1007.08 1007.32 1007.36 1007.60 1007.84 1007.92 1008.16 1008.04 1008.04 1008.04 1008.28 1008.40 1008.48 1008.44 1008.60 1008.64 1008.56 1008.84 1009.28 1009.72 1010.16 1010.44 1010.60 1010.64 1010.92 1011.16 1011.40 1011.36 1011.40 1011.44 1011.48 1011.28 1011.12 1011.08 1011.04 1011.12 1011.32 1011.44 1011.44 1011.24 1011.16 1011.24 1011.20 1011.20 1011.16 1011.16 1011.08 1011.08 1011.32 1011.08 1010.84 1010.56 1010.48 1010.44 1010.52 1010.36 1009.96 1009.80
1006.76 1006.92 1006.88 1006.88 1007.16 1007.24 1007.40 1007.68 1007.88 1007.92 1008.04 1008.20 1008.08 1008.16 1008.20 1008.20 1008.32 1008.28 1008.24 1008.24 1008.32 1008.48 1009.08 1009.48 1009.84 1010.16 1010.40 1010.48 1010.68 1010.96 1011.24 1011.40 1011.64 1011.64 1011.32 1011.20 1011.16 1010.96 1010.88 1011.04 1011.44 1011.92 1011.64 1011.24 1011.00 1011.12 1011.16 1011.04 1011.00 1011.04 1011.00 1011.08 1010.92 1010.80 1010.72 1010.32 1010.44 1010.96 1011.36 1011.24 1011.12 1010.88 1010.48
1006.92 1007.16 1007.40 1007.64 1007.68 1007.64 1007.84 1007.92 1008.08 1008.16 1008.28 1008.44 1008.40 1008.44 1008.52 1008.60 1008.32 1007.96 1008.44 1008.44 1008.40 1008.76 1009.32 1009.68 1010.04 1010.32 1010.40 1010.60 1010.88 1011.32 1011.32 1011.20 1011.20 1011.20 1011.24 1011.28 1011.20 1011.12 1011.04 1011.24 1011.32 1011.32 1011.60 1011.84 1011.68 1011.52 1011.44 1011.28 1011.00 1010.84 1010.80 1010.76 1010.80 1011.12 1011.08 1011.00 1011.36 1011.84 1012.60 1012.72 1012.64 1012.40 1011.76
1007.00 1007.20 1007.48 1007.48 1007.48 1007.64 1007.92 1008.12 1008.24 1008.40 1008.52 1008.64 1008.60 1008.68 1008.76 1008.84 1008.80 1008.64 1008.32 1008.56 1008.88 1009.12 1009.48 1009.92 1010.28 1010.68 1010.60 1010.52 1010.96 1010.72 1010.76 1010.88 1010.92 1010.96 1011.20 1011.12 1011.00 1011.00 1011.56 1012.60 1012.84 1012.76 1011.96 1011.80 1012.80 1012.68 1012.64 1012.24 1011.92 1011.96 1011.64 1011.16 1011.20 1012.00 1012.16 1012.28 1012.56 1012.92 1012.84 1012.64 1012.36 1012.12 1012.16
1006.92 1007.12 1007.36 1007.32 1007.52 1007.80 1008.00 1008.28 1008.36 1008.48 1008.68 1008.72 1008.68 1008.76 1008.84 1008.92 1008.80 1008.80 1008.60 1008.84 1008.92 1009.16 1009.60 1009.88 1010.20 1010.48 1010.44 1010.36 1010.36 1010.36 1010.68 1010.76 1010.76 1010.84 1011.12 1011.20 1011.12 1011.12 1011.12 1011.52 1012.60 1013.24 1013.24 1013.12 1013.28 1013.24 1013.16 1013.08 1013.08 1013.08 1013.04 1012.56 1011.76 1012.36 1012.96 1013.12 1013.24 1013.08 1012.80 1012.48 1012.20 1012.08 1012.04
1006.80 1007.00 1007.16 1007.20 1007.48 1007.88 1008.16 1008.36 1008.48 1008.56 1008.72 1008.68 1008.68 1008.80 1008.80 1008.80 1008.76 1008.84 1008.68 1008.88 1009.00 1009.12 1009.44 1009.72 1010.04 1010.28 1010.16 1010.20 1010.44 1011.00 1011.08 1010.80 1010.84 1010.92 1010.88 1010.88 1011.00 1011.04 1011.28 1011.60 1012.36 1013.12 1013.56 1013.76 1013.68 1013.56 1013.56 1013.52 1013.52 1013.48 1013.40 1013.20 1012.92 1012.48 1012.40 1012.92 1013.16 1013.08 1012.68 1012.40 1012.16 1012.04 1011.92
Wind_Speed
18 17 16 14 13 14 15 15 15 14 13 12 11 12 12 10 9 8 7 7 6 6 5 3 3 2 1 0 0 0 0 1 1 2 1 2 2 3 3 3 4 4 4 4 4 4 4 5 5 5 5 5 5 5 6 6 6 7 7 7 7 7 8
18 17 16 15 15 15 16 15 14 13 13 12 12 13 11 11 10 9 8 8 7 6 5 5 4 3 1 1 1 1 1 1 1 1 1 1 1 2 3 4 4 4 4 4 4 4 5 5 5 5 5 5 5 6 6 6 7 7 7 7 7 6 6
17 17 16 15 15 15 16 15 14 13 14 13 13 13 12 11 10 10 9 8 8 6 5 5 4 3 2 1 1 1 1 1 1 1 2 2 3 3 3 4 4 4 4 4 4 4 4 5 5 5 5 6 6 6 6 7 7 7 7 7 7 6 7
15 17 17 16 15 15 16 15 15 14 14 15 15 14 13 12 11 10 9 8 7 6 6 5 4 3 2 2 2 1 2 1 1 2 2 2 3 3 4 4 4 4 4 4 4 5 5 6 6 6 6 6 7 7 7 7 7 7 8 8 7 8 8
14 15 15 15 16 15 15 14 15 14 15 16 15 13 13 12 11 10 9 8 6 6 5 5 3 2 2 2 2 2 1 2 2 2 2 2 3 4 4 5 5 5 5 5 5 5 5 6 6 6 7 7 7 7 8 8 8 8 8 8 8 8 8
15 16 16 16 16 15 15 16 16 17 16 16 15 14 13 13 11 11 9 8 7 5 5 4 4 3 3 3 3 2 2 2 3 3 3 3 4 4 4 4 4 5 5 5 5 5 6 6 7 7 8 8 8 8 9 9 9 8 8 8 7 7 8
14 16 16 16 16 16 16 16 17 16 15 15 14 13 13 12 12 10 8 8 7 7 6 6 5 4 4 3 3 4 4 3 4 4 4 4 4 5 4 4 4 4 5 5 5 5 6 7 7 8 8 9 9 10 10 9 10 9 8 8 7 8 9
14 14 16 17 17 17 17 16 16 16 15 14 14 15 14 11 10 9 9 8 8 7 6 6 5 5 4 4 4 4 4 4 4 4 4 5 5 5 5 5 5 4 5 6 5 5 6 7 8 7 9 9 10 10 10 10 9 9 8 8 9 10 8
15 15 17 18 18 17 16 16 16 15 16 15 15 14 13 11 10 9 9 8 7 7 6 6 5 5 4 5 5 5 5 5 5 5 5 6 6 6 5 6 5 4 5 6 7 6 6 7 8 8 9 9 9 9 8 10 9 8 8 8 9 10 9
14 14 15 17 16 15 15 16 15 14 15 14 13 12 13 11 10 9 9 8 8 8 7 6 5 5 6 6 6 6 6 6 6 6 6 6 5 5 5 6 6 5 5 6 7 7 7 8 9 9 9 9 9 9 9 8 9 9 8 8 8 9 6
13 14 13 15 16 16 16 17 17 15 14 13 12 12 11 11 11 10 9 9 8 7 6 6 6 6 5 6 7 7 6 6 6 6 6 6 6 6 6 7 7 7 8 7 7 8 8 8 9 9 9 8 8 8 8 9 8 9 8 8 8 8 8
12 13 14 16 16 17 19 17 16 15 14 12 12 12 11 11 11 10 9 9 8 7 6 6 6 6 6 6 6 6 7 7 6 6 6 6 6 6 6 6 7 7 7 7 9 9 9 10 9 9 10 9 9 8 9 8 7 7 7 8 7 8 8
10 11 12 15 16 14 14 14 17 17 15 14 14 13 11 11 11 10 9 9 9 7 6 6 7 6 7 7 7 6 6 6 6 6 6 5 6 6 7 8 8 9 9 9 10 10 10 10 11 10 10 10 9 9 10 8 7 6 6 6 6 8 8
10 11 11 12 13 16 17 15 15 16 16 15 14 13 11 11 10 10 10 10 9 8 7 6 7 7 7 7 7 7 7 6 6 6 5 6 6 7 8 8 8 8 9 10 10 10 11 12 11 10 10 9 10 9 8 8 7 7 6 5 6 7 8
12 12 13 14 15 15 16 16 15 16 16 14 14 14 12 10 10 9 9 9 8 8 8 7 7 8 8 7 7 7 7 6 6 5 6 6 6 7 8 8 8 9 9 9 10 9 10 11 11 11 11 11 10 9 8 8 7 6 4 4 6 6 8
12 13 14 15 16 16 15 16 16 16 16 14 15 13 12 10 10 10 10 10 9 9 8 7 9 9 8 8 8 7 7 6 6 6 6 6 7 8 9 8 8 8 8 9 10 10 9 10 10 10 10 9 9 9 7 6 6 2 3 3 4 7 7
13 14 15 15 15 16 16 16 16 16 16 15 15 14 11 10 10 9 11 10 10 9 8 9 9 9 8 8 8 8 7 6 7 7 7 7 7 8 9 9 9 8 8 9 9 9 9 9 9 9 9 9 9 8 6 6 4 7 6 5 6 6 8
12 13 14 15 16 16 16 17 17 17 17 16 15 14 11 10 10 11 11 10 9 8 9 10 10 9 9 9 8 8 7 7 8 8 8 8 8 9 9 8 9 8 9 9 9 8 8 9 9 9 8 7 8 7 6 6 4 8 7 6 6 5 6
11 12 13 14 15 17 18 19 18 18 17 15 14 13 13 12 12 12 11 10 9 8 9 10 10 9 9 9 8 8 7 8 8 8 8 8 9 9 9 8 9 9 9 9 8 8 8 9 9 8 8 7 7 7 7 7 5 9 7 6 8 6 6
10 10 11 14 15 17 17 16 16 16 16 15 15 14 13 12 12 11 11 10 9 10 10 10 9 9 9 8 8 8 8 8 8 8 9 9 9 9 9 8 9 9 9 8 7 7 8 9 9 8 7 7 7 7 6 8 4 7 7 8 8 6 7
8 9 11 12 14 15 15 16 16 16 15 16 15 13 13 12 12 11 11 10 10 11 11 10 9 9 9 9 8 8 8 8 8 8 8 8 8 8 8 8 8 7 7 8 8 8 8 8 9 8 8 7 7 8 7 5 7 10 10 8 7 8 8
7 8 10 10 13 13 14 15 15 16 15 13 14 14 13 13 13 12 11 11 12 11 10 10 10 10 9 9 8 8 8 8 8 8 8 8 8 8 8 8 7 8 7 7 7 7 8 8 9 9 9 8 8 8 7 6 10 11 11 9 9 8 7
5 7 8 9 11 13 14 14 14 15 13 13 13 13 13 12 13 12 11 12 12 11 11 10 10 10 9 9 8 8 8 7 8 8 8 8 8 8 7 7 8 8 7 7 8 8 8 8 9 9 9 11 12 13 11 8 8 12 11 10 10 7 7
4 5 7 9 10 11 13 13 13 13 13 15 14 14 13 13 13 12 12 12 12 11 11 11 11 10 9 8 8 8 7 7 7 8 8 8 8 8 7 7 7 7 6 7 9 10 8 8 10 9 6 6 8 8 11 13 7 11 11 11 12 9 8
4 6 8 9 12 13 14 13 13 14 13 14 14 14 13 14 15 14 13 13 13 11 11 12 11 10 9 8 8 7 6 6 7 7 7 7 8 7 7 5 6 8 5 4 7 8 8 6 7 9 10 13 13 12 11 9 11 8 11 12 11 8 7
6 7 8 9 10 11 12 12 12 12 14 13 13 14 14 14 14 14 14 14 13 12 12 12 10 9 8 7 7 6 5 6 6 7 7 7 8 6 2 1 4 6 6 6 5 4 4 3 5 7 8 9 9 12 13 12 13 6 12 11 11 11 7
5 6 8 9 10 10 11 10 10 12 12 12 12 13 13 12 13 14 13 12 13 13 12 10 9 9 8 7 6 5 6 6 6 7 7 6 7 1 2 1 4 5 4 5 4 3 3 4 5 5 6 8 10 11 9 10 12 10 8 10 10 10 8
7 7 7 7 10 9 9 11 11 12 14 11 12 11 10 10 11 11 11 11 14 13 10 10 10 9 7 5 4 4 4 5 5 6 5 4 5 5 3 4 5 5 6 4 3 3 4 4 4 5 6 7 8 7 9 11 17 12 5 8 8 8 9
8 8 9 9 10 10 9 8 9 12 14 13 12 8 8 10 11 11 10 12 13 12 10 9 7 6 5 4 3 3 4 5 6 6 5 4 5 5 3 4 6 7 6 5 4 4 4 4 5 6 7 8 7 8 8 7 7 11 8 3 3 5 6
7 7 7 8 9 9 10 7 8 8 11 11 8 7 7 8 7 7 9 12 10 9 8 7 7 7 5 4 4 4 4 5 5 4 4 5 5 4 4 5 6 6 5 4 4 4 5 4 4 5 6 8 8 7 8 7 6 6 6 5 3 6 8
8 7 7 7 8 8 8 7 6 5 5 5 5 4 6 7 9 9 11 10 9 8 8 8 8 6 5 5 4 3 4 3 3 2 3 3 4 5 4 5 6 6 5 5 6 6 5 5 4 5 8 7 7 6 8 7 7 2 2 4 7 8 9
7 7 7 7 7 6 4 4 3 4 4 4 3 3 4 5 6 9 10 10 8 8 8 9 8 6 6 4 3 3 2 2 1 1 1 3 4 5 4 5 5 6 5 6 6 6 6 6 4 6 7 6 6 6 6 6 6 6 3 6 7 8 5
7 6 6 6 5 4 2 2 3 3 4 4 3 4 6 7 7 8 8 6 7 8 8 7 7 6 4 3 3 2 2 1 1 3 2 4 4 4 5 5 5 5 6 7 7 7 6 6 6 6 6 6 6 7 9 8 2 3 6 7 7 7 8
7 6 6 6 5 3 2 2 3 3 3 2 1 2 3 4 5 6 6 7 7 6 6 6 6 5 4 4 2 3 3 1 3 3 4 3 4 6 6 5 4 6 8 8 7 6 6 6 6 6 6 7 5 7 8 7 6 7 10 10 9 9 8
6 6 6 6 5 4 3 2 2 3 3 3 3 2 1 1 3 2 2 2 3 5 6 5 5 3 2 3 3 4 3 4 4 4 3 3 4 5 5 4 5 5 5 4 5 4 5 6 6 4 5 6 6 6 6 6 7 8 9 9 10 8 7
7 8 7 6 6 6 6 6 5 4 4 4 2 2 1 2 1 1 4 2 3 4 5 6 5 2 4 4 3 6 5 4 4 3 4 6 6 6 2 12 12 9 6 1 8 10 11 9 5 5 5 4 4 5 6 6 6 10 13 12 10 6 5
6 6 6 6 6 6 6 6 5 4 4 3 2 2 2 1 2 1 1 3 2 3 5 5 5 3 4 4 6 1 2 5 7 4 4 4 4 4 5 2 8 14 16 12 7 8 9 9 8 8 7 7 3 7 6 3 7 10 10 9 8 6 5
6 6 6 5 5 6 6 5 4 4 4 3 2 3 2 2 2 2 2 3 3 4 4 6 5 4 5 5 4 3 3 5 4 4 4 4 3 4 4 2 3 5 8 8 8 7 6 7 7 7 7 10 10 7 4 7 10 11 10 9 6 5 5
Wind_Direction
195 193 192 190 187 188 186 188 184 178 173 172 169 171 171 171 162 171 183 183 183 170 173 180 177 183 167 152 172 55 345 14 31 348 349 355 349 342 330 320 312 306 307 305 319 309 313 312 316 324 325 330 325 327 318 310 307 304 299 297 297 290 289
196 191 190 187 186 186 185 184 183 178 174 174 175 174 178 170 166 180 185 185 182 182 177 188 188 179 193 174 203 215 313 341 7 339 327 299 286 301 311 308 304 303 299 305 312 307 300 301 301 308 309 314 320 319 317 314 313 310 312 309 306 301 290
201 192 188 185 184 182 182 182 183 181 178 179 180 180 180 172 173 184 185 184 182 182 185 191 193 185 181 189 237 203 229 270 298 297 304 319 333 325 322 312 309 306 312 305 291 302 296 293 290 288 295 303 311 313 313 311 312 309 309 307 304 307 297
202 193 186 180 180 180 181 181 181 182 181 182 183 182 178 173 175 185 189 184 179 183 192 195 195 198 192 214 231 218 217 209 249 275 265 270 309 319 319 324 321 310 302 305 312 303 302 295 290 290 288 293 304 309 310 313 309 306 304 300 302 301 304
195 191 181 179 181 180 181 180 181 184 183 183 181 181 176 175 176 185 186 182 184 188 200 202 206 196 215 236 234 225 215 234 231 225 249 270 290 299 305 323 329 323 316 299 291 289 296 294 295 294 293 295 299 305 310 309 307 305 305 303 304 305 309
189 185 182 180 180 180 181 180 183 184 184 183 179 179 177 178 183 190 182 173 178 187 196 210 208 206 243 230 229 214 204 217 218 220 236 252 277 291 300 307 318 320 313 305 300 296 294 295 295 298 296 297 301 303 302 309 309 308 303 297 291 310 313
186 186 183 183 184 182 181 182 184 185 184 182 176 176 182 185 188 196 180 178 185 189 208 214 218 229 236 242 225 226 226 226 218 229 236 250 261 275 284 281 288 305 316 311 303 300 297 292 293 289 287 289 292 296 299 308 307 308 302 294 301 306 304
187 188 187 187 189 185 182 180 181 185 185 181 177 183 189 184 184 193 190 194 200 216 216 225 217 225 236 234 237 237 230 231 234 241 248 255 266 268 269 275 280 291 305 299 300 295 295 292 291 291 287 286 285 286 290 298 303 303 305 306 309 311 314
187 188 187 189 190 187 181 179 181 183 183 180 177 183 182 181 187 189 193 205 209 220 230 241 229 217 225 235 234 229 228 229 235 237 243 255 265 272 284 287 304 294 292 299 301 297 288 287 284 284 285 283 282 280 283 287 297 302 304 303 309 311 324
186 187 192 192 190 186 179 175 176 172 171 168 172 178 179 181 188 189 198 205 215 218 225 234 237 229 220 227 233 231 231 230 233 241 252 259 265 270 282 290 286 302 294 295 299 296 291 284 281 278 277 278 280 279 278 282 293 300 305 308 313 313 319
185 184 184 185 184 181 175 172 170 168 167 167 167 173 176 177 181 184 192 208 224 227 212 219 230 235 242 241 240 230 230 236 238 240 243 255 268 280 286 312 333 325 310 302 297 293 290 285 282 278 269 270 274 280 280 284 288 295 303 309 313 310 303
186 183 183 181 177 175 177 174 168 160 162 166 170 175 176 175 178 182 190 206 224 226 221 221 229 236 242 248 241 238 240 242 244 248 253 259 270 281 298 299 289 296 298 311 304 298 290 286 284 282 278 270 272 272 273 273 277 287 295 303 311 306 308
192 191 184 181 177 176 173 170 167 161 163 169 174 176 174 177 179 184 188 202 214 220 216 216 228 235 244 248 256 245 247 248 245 251 260 263 270 283 288 294 309 315 316 307 304 301 299 295 291 285 280 278 274 274 276 272 274 276 281 292 302 311 312
197 192 187 180 179 178 179 173 166 163 165 170 172 172 174 177 179 181 188 201 209 210 213 216 221 229 233 243 247 248 251 252 251 254 256 266 276 280 283 291 305 309 305 302 297 299 303 298 295 292 285 281 280 278 276 271 269 269 273 285 301 309 316
198 198 189 187 186 184 180 175 170 165 165 169 169 171 171 173 176 181 192 206 206 213 213 216 220 224 234 237 241 245 252 251 250 250 257 261 268 277 282 294 302 293 290 295 297 295 295 296 296 290 283 281 284 280 272 275 271 266 275 292 299 314 319
205 197 193 192 189 188 184 176 168 166 162 166 170 168 171 169 172 182 197 204 205 210 214 214 217 224 231 238 240 247 251 249 243 250 261 270 277 285 288 303 299 290 295 300 300 297 297 299 293 285 284 287 286 279 277 274 266 189 148 252 302 320 321
210 204 200 196 189 187 184 178 171 165 162 167 169 168 169 172 179 191 211 211 213 208 213 215 216 222 229 233 240 248 252 247 245 251 260 269 275 278 291 303 295 294 302 302 298 299 296 287 288 295 297 299 297 296 285 274 255 170 193 211 246 287 317
224 213 204 195 191 188 183 180 175 169 166 168 166 167 174 175 186 198 210 210 216 219 212 215 218 223 226 233 239 246 249 248 251 256 268 275 275 279 290 295 293 301 302 298 295 297 299 298 297 295 298 298 302 300 290 283 210 178 194 224 245 268 300
233 219 208 197 191 188 185 182 177 171 167 166 169 171 173 178 194 202 205 208 210 216 221 215 219 222 229 234 240 244 250 253 258 264 270 274 279 286 289 299 296 302 304 303 305 302 298 300 297 299 301 301 300 301 297 297 155 182 208 228 244 256 271
239 226 211 202 194 190 188 183 174 166 163 163 167 176 181 195 198 202 203 208 207 215 219 219 220 226 228 235 241 245 252 254 261 266 270 274 281 283 287 298 299 308 310 304 299 296 294 298 299 297 294 292 292 291 304 297 104 210 204 224 234 247 258
231 222 211 203 199 194 187 181 163 159 159 164 174 176 187 193 198 200 204 207 211 213 215 215 223 223 228 237 240 246 251 260 264 269 273 277 276 274 277 290 293 298 305 312 311 304 303 300 301 298 293 294 296 296 300 312 163 217 217 223 235 245 251
221 216 211 205 196 192 179 168 158 157 154 158 166 182 191 196 202 206 207 206 213 213 214 216 220 224 226 235 242 248 255 262 268 273 274 271 268 267 277 286 293 301 304 300 305 309 303 299 299 298 291 291 293 290 290 308 180 211 213 217 229 233 250
213 205 202 197 191 184 171 160 159 146 140 151 172 186 192 199 202 205 209 209 213 215 215 217 219 223 226 238 245 253 259 262 272 279 277 279 274 272 278 286 292 294 302 301 304 304 305 314 324 324 345 338 320 312 302 293 197 202 204 213 217 224 268
195 182 185 181 176 167 161 158 153 141 155 170 182 189 197 201 202 202 207 213 214 217 217 218 220 219 230 240 248 255 258 261 271 277 278 271 271 272 281 283 298 300 310 318 315 306 317 342 326 330 333 297 295 290 295 300 288 187 202 210 211 229 267
169 158 169 172 173 165 158 159 154 154 167 177 186 193 198 199 201 202 206 212 219 223 219 219 218 221 231 238 252 257 258 266 269 272 272 268 270 273 280 298 312 309 309 315 305 331 337 349 326 325 319 322 316 304 296 290 294 204 200 206 217 217 252
151 146 161 158 162 156 154 149 150 167 178 185 196 198 198 195 199 205 210 212 218 223 218 218 217 219 230 245 253 254 264 264 266 264 269 272 267 286 21 139 261 284 292 295 292 312 314 324 314 315 313 306 307 305 306 301 280 253 196 210 216 218 248
142 149 153 160 153 158 154 162 166 172 182 192 201 204 200 196 198 205 209 215 219 222 219 216 219 223 236 243 241 250 251 253 255 263 267 293 300 223 196 210 264 258 246 255 265 269 283 298 307 309 301 299 302 301 289 273 291 294 205 210 212 224 222
144 149 153 152 144 155 163 176 178 186 197 198 206 205 194 191 192 198 205 214 220 216 217 217 228 232 227 209 211 241 259 266 268 266 266 253 244 238 175 205 240 250 258 254 244 252 278 285 291 290 286 283 287 275 292 307 297 286 198 202 219 226 221
144 155 155 153 163 175 174 177 188 198 209 211 211 192 182 189 196 198 201 216 221 222 218 217 210 185 169 170 202 229 254 263 264 267 258 227 223 228 238 214 239 252 252 255 255 261 272 285 301 306 310 307 304 309 302 292 305 275 283 253 214 253 246
139 147 159 182 174 176 188 189 197 203 213 222 183 175 181 191 198 203 210 221 220 213 199 180 163 148 156 190 211 235 261 265 267 258 249 247 236 219 230 235 252 261 254 248 267 274 281 278 294 302 293 294 308 312 319 328 299 272 271 301 310 286 277
150 152 161 181 178 171 190 199 197 203 186 152 145 171 181 193 205 205 215 220 217 196 176 156 145 147 173 207 220 234 250 258 268 269 263 250 226 223 229 248 255 256 248 261 273 275 275 272 283 302 298 302 309 311 309 292 250 319 308 274 267 265 266
138 136 137 129 115 137 171 180 189 187 178 174 199 177 197 211 220 223 223 221 200 183 171 155 153 166 190 210 217 215 215 246 249 287 312 274 249 238 241 254 253 252 247 263 276 275 273 274 259 257 275 305 303 300 284 297 1 327 343 344 328 308 277
138 137 130 120 110 116 129 166 207 219 230 232 205 224 225 228 233 244 251 236 198 175 159 159 162 173 184 204 170 144 123 101 345 331 282 247 249 253 256 257 252 252 254 268 271 273 273 278 281 283 289 292 322 317 311 327 26 345 348 343 332 330 332
122 110 102 104 115 127 139 181 229 241 252 276 217 212 276 264 247 236 241 214 208 164 150 159 170 179 190 179 156 154 140 154 144 237 269 264 280 289 284 249 239 275 281 277 273 273 274 281 293 301 304 308 298 309 318 327 6 13 352 337 333 324 323
117 117 123 129 130 146 129 122 80 58 56 68 64 37 352 299 291 279 141 215 204 146 158 157 142 126 112 128 166 164 192 242 223 237 245 271 257 262 276 308 299 292 284 359 350 360 315 299 298 305 322 318 334 342 334 354 7 2 339 317 310 298 307
123 121 117 114 118 107 95 81 75 81 88 96 87 93 118 122 153 240 237 182 133 152 139 122 113 125 233 191 199 224 216 222 268 268 276 286 286 275 100 74 52 19 313 79 55 42 33 23 12 4 342 331 24 33 10 8 352 332 325 327 333 333 293
125 121 115 120 111 99 90 91 94 102 103 93 98 115 116 135 143 164 144 112 142 145 139 144 146 163 262 228 240 294 303 294 291 272 247 264 275 272 276 192 75 39 34 48 69 51 41 45 38 24 6 343 21 109 119 51 352 340 336 352 6 13 350
106 110 114 116 109 112 113 110 110 113 112 113 126 123 167 173 162 165 185 142 150 159 160 167 167 201 224 245 234 128 245 269 265 274 273 265 261 270 264 281 108 78 39 17 37 56 78 85 82 72 62 44 34 25 48 31 8 350 349 355 15 4 344